Wind_Speed
6 7 6 7 8 11 13 15 14 15 16 15 16 18 20 19 22 23 23 22 22 22 22 22 21 21 21 21 21 22 23 25 26 27 28 29 30 30 30 31 30 29 28 28
5 5 7 9 11 10 11 13 13 13 15 16 17 18 19 20 22 23 23 22 22 23 22 23 23 23 24 23 24 24 25 26 27 28 29 29 30 30 30 30 29 29 29 29
5 7 8 9 10 10 11 12 11 14 16 17 17 18 21 23 23 23 24 23 22 23 24 24 24 24 24 24 24 25 26 27 28 28 29 30 30 31 30 30 29 28 28 29
6 8 9 10 10 10 11 13 13 15 16 16 18 20 20 23 23 22 24 24 23 22 25 25 24 25 24 25 25 26 26 27 28 29 30 30 31 30 29 29 29 28 28 28
7 8 9 10 11 12 13 13 15 14 15 17 18 21 21 22 22 22 22 24 24 23 25 23 24 24 24 24 25 26 27 28 29 30 29 29 30 30 29 28 29 29 29 29
7 9 10 11 12 14 14 13 12 12 15 19 18 20 22 22 22 22 23 22 22 23 24 23 23 23 24 24 25 26 27 28 29 28 28 29 29 28 29 29 29 30 29 29
7 8 10 10 11 12 12 10 11 13 15 18 18 19 22 22 22 23 23 22 23 23 23 23 23 23 23 24 25 26 27 28 28 28 28 29 29 29 29 29 29 29 28 28
8 8 9 11 11 12 11 10 13 16 16 16 17 18 19 21 22 23 24 23 23 24 22 22 21 22 23 24 25 26 27 28 27 28 28 29 29 29 29 28 27 26 26 26
10 9 9 10 10 9 9 10 13 17 17 17 17 21 21 19 20 21 22 22 22 22 22 21 22 22 23 24 25 26 27 28 27 27 28 28 28 27 27 26 26 25 25 25
12 11 11 12 11 12 11 13 14 16 17 18 18 18 21 19 19 20 21 20 20 21 21 21 22 23 23 24 25 25 26 27 27 27 27 26 26 26 26 25 25 25 25 24
14 13 12 12 14 13 13 15 16 17 18 18 20 20 18 18 18 19 21 20 20 21 22 21 22 22 23 23 24 24 25 25 26 26 26 26 26 25 25 25 25 25 24 24
15 15 14 13 13 14 15 16 17 17 18 18 20 23 21 19 18 19 20 21 22 22 22 22 22 22 22 23 23 23 24 24 25 25 24 24 25 25 25 25 25 24 24 23
15 15 15 13 12 14 15 15 15 17 18 19 20 23 22 20 22 21 21 22 22 22 22 22 22 23 23 23 23 23 23 23 24 23 23 24 24 24 24 24 23 23 23 23
14 15 16 15 15 16 15 15 16 17 19 20 22 23 22 22 23 21 22 23 23 22 23 22 22 22 23 23 22 22 22 23 23 22 22 23 23 22 22 22 21 22 22 21
16 15 16 16 15 15 17 17 16 18 19 21 22 24 23 22 23 22 22 21 21 21 21 20 20 21 22 21 21 21 21 22 22 21 21 22 22 22 21 20 20 20 20 20
17 16 16 16 16 16 17 18 18 19 20 21 22 23 22 23 23 23 22 21 19 19 20 19 20 20 20 20 20 20 20 21 20 20 21 22 22 21 20 19 19 18 18 18
18 17 17 16 16 17 18 18 18 19 19 20 22 23 24 24 22 22 21 20 20 18 18 18 18 18 18 19 19 20 19 19 19 20 20 21 20 19 17 17 18 17 17 17
18 18 17 17 17 19 17 16 18 18 19 20 21 22 23 23 22 21 20 19 18 17 17 17 17 17 18 18 18 17 17 18 19 19 20 20 18 17 16 16 15 15 16 16
19 18 18 18 19 19 18 17 18 19 20 21 21 20 21 21 21 20 18 18 17 16 16 16 17 16 17 17 17 17 17 18 17 18 18 18 17 16 15 15 15 14 14 14
20 19 19 19 20 22 18 19 18 19 20 20 19 19 19 19 19 18 17 16 15 15 15 16 16 15 15 14 15 16 16 16 16 16 17 16 15 15 14 14 14 13 13 13
21 20 20 20 21 21 18 18 19 20 20 19 18 18 18 17 17 17 16 15 14 14 14 13 13 13 13 13 13 14 14 13 14 14 15 15 14 14 14 13 12 12 12 12
22 21 21 20 20 18 17 17 19 19 19 19 18 17 16 16 15 14 14 14 13 12 12 12 12 12 12 12 12 11 11 11 12 13 14 14 13 13 12 11 11 12 12 12
22 21 21 20 19 17 16 18 19 19 18 17 16 16 15 15 14 13 12 12 12 11 10 11 11 11 11 10 10 10 10 11 12 12 13 13 12 12 12 12 12 12 12 12
22 20 21 21 19 19 18 18 18 17 17 16 15 14 13 13 12 11 11 11 11 10 10 10 9 9 9 8 8 9 9 10 11 12 12 12 12 12 12 12 13 13 13 13
23 21 22 21 20 18 18 18 17 15 15 15 13 12 12 11 10 10 9 9 9 9 8 8 7 7 7 7 7 8 8 9 10 10 11 12 12 12 12 13 13 13 13 14
23 22 21 21 19 19 18 17 16 13 12 12 11 11 9 8 8 8 8 8 7 7 7 7 7 6 5 6 7 7 8 8 8 10 11 12 12 12 13 13 13 14 14 14
Wind_Direction
176 176 191 203 213 224 237 237 233 234 246 252 255 259 260 262 266 272 281 284 282 282 283 288 289 291 293 295 297 298 297 297 298 300 301 302 303 302 301 301 299 298 294 291
179 203 214 218 224 226 236 241 239 244 246 250 254 262 262 264 267 275 279 284 284 285 287 291 290 290 292 294 295 296 297 298 299 300 301 302 304 303 302 302 300 297 294 292
229 241 234 233 234 236 243 247 241 247 251 258 265 266 267 269 271 274 277 280 282 286 288 289 287 288 291 293 294 295 296 298 300 301 302 302 302 301 301 301 299 296 294 293
245 249 251 246 245 247 247 248 248 252 255 260 265 271 270 274 271 275 277 280 285 285 286 286 286 288 291 292 293 296 298 300 301 302 302 302 301 302 301 299 299 297 295 293
262 261 261 251 245 245 246 251 252 253 258 260 262 266 273 277 277 277 278 281 284 285 285 284 284 286 289 291 293 297 299 301 303 302 302 302 302 302 302 300 299 297 295 293
262 261 260 252 245 249 253 253 256 260 263 265 269 268 270 273 277 279 281 282 284 286 285 284 283 285 287 291 293 296 298 301 303 303 303 303 303 303 304 301 300 298 295 293
274 278 277 266 260 252 252 255 263 263 261 267 272 265 265 275 280 282 284 285 287 287 285 282 281 284 287 291 294 296 299 302 303 304 304 303 303 304 305 303 301 300 297 295
258 258 273 272 265 259 250 244 257 264 268 271 279 276 273 278 280 283 287 288 288 291 289 283 282 285 288 290 293 296 300 302 303 303 303 303 302 304 304 303 303 302 302 300
256 252 258 263 265 259 258 250 259 269 269 268 266 271 270 273 276 286 289 289 291 294 293 289 289 288 288 291 294 297 300 301 302 303 304 305 305 305 305 304 304 305 304 303
264 263 262 267 274 274 262 261 264 269 273 275 273 275 276 280 283 289 292 291 293 294 292 290 292 291 290 292 295 298 301 301 302 302 304 306 307 308 309 307 307 305 304 303
271 265 262 263 269 272 271 267 268 272 274 278 284 281 280 277 283 286 289 295 296 294 292 293 294 294 294 294 297 300 303 303 303 304 305 307 309 309 309 308 308 307 305 303
270 270 265 259 264 265 268 270 269 273 276 277 280 283 284 283 282 286 288 292 294 292 292 292 293 294 296 298 300 302 304 305 305 306 307 309 309 310 310 308 307 306 306 304
271 270 268 266 266 267 269 271 270 272 275 278 279 282 285 286 285 287 289 292 292 291 290 291 291 292 294 297 300 303 306 308 308 309 309 310 311 312 312 311 309 307 307 305
271 268 267 269 268 272 277 279 279 277 272 274 275 280 281 280 286 290 289 289 290 291 291 290 291 293 295 298 301 305 308 310 310 311 312 312 312 313 313 312 311 311 310 310
275 271 270 272 275 278 281 282 283 282 279 276 276 281 282 280 286 289 292 291 289 291 292 292 292 294 297 300 303 305 307 310 311 313 314 315 314 313 314 315 315 316 316 316
278 277 270 271 274 276 278 279 279 279 281 281 279 280 283 286 286 290 292 295 294 293 294 295 294 294 298 301 304 304 306 311 313 315 316 317 316 314 314 316 317 318 319 319
274 277 274 272 274 277 280 282 281 280 280 280 278 279 283 285 289 290 291 291 290 293 296 296 294 295 297 301 303 305 306 313 315 318 320 320 320 318 317 316 316 318 320 324
270 272 273 275 273 272 276 282 283 283 283 281 281 281 283 286 290 290 290 290 291 292 294 295 295 297 299 301 301 306 310 314 317 320 323 324 325 321 317 316 318 321 323 325
269 274 273 269 272 276 277 282 285 286 286 283 283 283 285 287 287 286 288 288 291 292 293 294 294 296 299 299 304 306 309 313 318 323 327 327 326 325 324 324 324 326 328 329
275 276 276 274 272 275 278 283 286 287 285 286 286 288 288 287 288 288 287 287 290 292 293 295 295 297 303 304 307 310 310 312 318 325 329 331 330 331 330 329 328 329 330 333
267 271 274 274 273 275 279 282 285 284 285 286 285 287 288 287 286 287 286 286 289 292 295 297 299 302 305 309 313 315 317 318 320 326 332 336 337 337 336 336 336 335 335 334
265 269 271 272 270 274 278 278 279 281 282 284 284 284 284 281 285 286 288 289 292 293 296 300 301 300 307 314 318 320 324 327 330 334 338 341 342 345 347 346 345 344 342 341
262 260 262 265 271 271 273 273 279 282 281 282 285 286 283 279 284 287 288 289 291 294 297 300 305 304 310 317 319 322 329 336 342 346 348 350 351 352 353 353 350 347 345 344
260 254 255 260 265 269 271 271 273 276 281 286 288 284 280 281 283 283 284 286 289 293 299 304 307 309 314 319 322 326 333 339 345 350 354 355 355 355 355 354 352 351 348 346
258 256 259 259 261 263 267 270 274 275 280 286 286 282 279 280 279 278 281 287 289 291 300 307 311 310 316 323 330 334 335 338 345 351 355 357 357 357 358 356 354 352 352 350
256 255 255 257 257 262 261 264 270 272 275 280 282 284 279 276 276 279 280 284 288 293 298 309 313 315 319 330 333 338 339 342 348 353 359 0 358 357 355 354 353 355 354 351
Height
5845 5848 5850 5852 5853 5856 5857 5859 5859 5862 5861 5861 5861 5862 5861 5860 5861 5861 5859 5859 5858 5858 5858 5857 5856 5856 5854 5853 5852 5850 5849 5848 5846 5844 5842 5839 5837 5834 5832 5829 5827 5824 5823 5821
5847 5847 5849 5850 5852 5853 5855 5856 5858 5859 5859 5859 5859 5859 5858 5857 5857 5857 5856 5856 5853 5853 5852 5853 5852 5852 5851 5849 5848 5847 5845 5843 5842 5839 5837 5834 5831 5829 5826 5823 5821 5818 5816 5814
5846 5848 5848 5850 5850 5852 5853 5854 5855 5856 5857 5857 5856 5856 5855 5855 5853 5853 5853 5853 5851 5849 5847 5848 5848 5847 5846 5845 5843 5842 5840 5839 5837 5834 5831 5829 5826 5823 5820 5817 5814 5812 5810 5808
5846 5846 5847 5848 5849 5851 5852 5851 5852 5854 5855 5855 5855 5853 5852 5850 5849 5850 5849 5848 5847 5846 5844 5843 5843 5842 5841 5840 5838 5838 5836 5834 5831 5828 5826 5823 5820 5817 5814 5811 5809 5806 5803 5801
5844 5845 5845 5846 5848 5848 5848 5849 5849 5850 5851 5851 5851 5850 5850 5847 5845 5845 5844 5843 5842 5841 5840 5838 5838 5837 5836 5835 5834 5833 5831 5828 5825 5823 5820 5817 5814 5811 5808 5805 5802 5799 5797 5794
5843 5844 5843 5844 5844 5845 5845 5846 5847 5847 5848 5848 5847 5847 5845 5843 5842 5842 5840 5838 5836 5836 5835 5834 5834 5832 5831 5830 5829 5827 5825 5823 5820 5817 5814 5811 5808 5805 5801 5798 5795 5792 5790 5788
5842 5842 5841 5841 5842 5842 5843 5844 5844 5845 5845 5844 5844 5843 5842 5840 5839 5838 5835 5834 5832 5833 5830 5829 5828 5828 5827 5826 5824 5822 5820 5817 5814 5812 5809 5806 5803 5799 5796 5792 5789 5786 5783 5781
5840 5841 5840 5840 5840 5840 5840 5841 5843 5842 5841 5840 5840 5838 5837 5836 5835 5834 5833 5831 5830 5828 5825 5823 5823 5823 5822 5821 5819 5817 5815 5812 5809 5806 5803 5800 5797 5793 5790 5786 5783 5780 5777 5775
5837 5837 5838 5838 5838 5838 5838 5839 5839 5838 5837 5837 5837 5835 5833 5831 5831 5830 5829 5828 5826 5824 5822 5820 5818 5818 5817 5816 5814 5812 5809 5807 5804 5801 5798 5794 5791 5787 5784 5780 5777 5774 5771 5769
5834 5834 5835 5835 5836 5836 5836 5836 5836 5835 5834 5832 5833 5831 5829 5827 5828 5826 5825 5823 5822 5820 5818 5816 5815 5813 5813 5811 5809 5807 5804 5802 5799 5796 5792 5789 5785 5782 5778 5775 5772 5769 5766 5763
5831 5831 5832 5833 5833 5833 5834 5833 5832 5832 5831 5829 5827 5828 5824 5824 5823 5822 5821 5819 5818 5816 5814 5813 5811 5809 5808 5806 5804 5802 5800 5797 5794 5790 5787 5784 5780 5776 5773 5770 5766 5763 5760 5757
5827 5827 5827 5829 5829 5829 5829 5829 5829 5828 5827 5826 5824 5824 5820 5819 5818 5818 5816 5815 5814 5812 5810 5809 5807 5805 5803 5801 5799 5797 5795 5792 5788 5785 5782 5778 5775 5771 5767 5764 5760 5757 5754 5752
5823 5824 5823 5824 5827 5826 5825 5825 5824 5824 5822 5821 5820 5820 5816 5815 5814 5813 5812 5811 5810 5808 5806 5804 5802 5800 5798 5796 5794 5792 5790 5787 5783 5780 5776 5773 5769 5766 5762 5758 5755 5752 5749 5746
5820 5819 5820 5820 5820 5820 5820 5820 5820 5819 5818 5817 5816 5814 5812 5811 5809 5808 5807 5806 5805 5803 5801 5800 5798 5795 5793 5791 5789 5787 5785 5782 5778 5775 5771 5768 5764 5761 5757 5754 5750 5747 5744 5741
5815 5816 5815 5815 5815 5816 5816 5816 5815 5814 5813 5812 5811 5809 5807 5806 5805 5803 5801 5800 5799 5798 5796 5795 5793 5791 5789 5787 5785 5782 5780 5777 5774 5771 5767 5764 5760 5757 5753 5750 5746 5743 5740 5737
5811 5811 5811 5811 5812 5811 5811 5811 5811 5810 5808 5807 5806 5803 5802 5801 5799 5798 5797 5795 5794 5793 5791 5790 5788 5786 5785 5783 5780 5778 5776 5773 5770 5767 5763 5760 5756 5752 5749 5746 5743 5740 5737 5734
5807 5806 5806 5806 5807 5806 5806 5807 5806 5804 5803 5802 5800 5799 5797 5796 5795 5794 5792 5791 5790 5788 5787 5785 5784 5782 5780 5779 5776 5774 5772 5769 5766 5763 5759 5755 5752 5749 5746 5743 5740 5737 5734 5731
5802 5801 5801 5801 5802 5801 5803 5801 5801 5799 5798 5797 5795 5793 5792 5792 5790 5789 5788 5786 5785 5784 5783 5781 5780 5778 5776 5774 5772 5770 5768 5766 5763 5760 5756 5752 5749 5746 5743 5740 5737 5734 5731 5728
5798 5797 5796 5797 5796 5796 5797 5797 5796 5795 5794 5792 5790 5789 5788 5786 5785 5784 5783 5782 5781 5780 5779 5777 5776 5774 5773 5771 5768 5766 5765 5763 5760 5757 5753 5749 5746 5743 5740 5737 5735 5732 5729 5726
5792 5792 5792 5791 5791 5791 5793 5792 5790 5790 5788 5787 5785 5785 5784 5783 5781 5780 5779 5778 5778 5776 5775 5773 5772 5770 5768 5767 5766 5764 5762 5760 5757 5754 5751 5747 5744 5741 5738 5736 5733 5731 5728 5725
5787 5787 5786 5786 5785 5784 5787 5786 5786 5786 5785 5783 5781 5781 5780 5779 5777 5777 5775 5775 5774 5773 5772 5770 5769 5768 5766 5765 5763 5762 5760 5757 5755 5752 5749 5746 5743 5740 5737 5734 5732 5730 5727 5725
5782 5782 5781 5781 5781 5783 5782 5781 5781 5781 5779 5778 5777 5777 5776 5774 5773 5773 5772 5772 5771 5770 5769 5768 5766 5765 5764 5762 5761 5760 5758 5755 5753 5750 5748 5744 5741 5739 5736 5734 5731 5729 5726 5724
5775 5776 5776 5776 5777 5777 5777 5777 5777 5776 5775 5774 5773 5772 5771 5770 5769 5769 5769 5769 5769 5768 5767 5766 5764 5763 5762 5761 5759 5758 5756 5754 5752 5749 5747 5744 5741 5738 5736 5734 5731 5728 5726 5723
5769 5769 5770 5770 5771 5772 5772 5772 5771 5771 5771 5770 5769 5768 5767 5767 5766 5766 5766 5766 5766 5766 5765 5764 5762 5761 5760 5759 5758 5756 5755 5753 5751 5749 5746 5744 5741 5738 5736 5733 5731 5728 5725 5722
5762 5763 5764 5765 5766 5766 5768 5768 5767 5767 5767 5766 5765 5764 5764 5763 5763 5764 5764 5764 5764 5764 5763 5762 5761 5760 5759 5758 5757 5756 5754 5752 5751 5748 5746 5743 5741 5738 5736 5733 5731 5728 5725 5722
5757 5759 5760 5760 5761 5762 5762 5763 5763 5763 5763 5763 5762 5761 5761 5761 5761 5761 5762 5762 5762 5762 5762 5761 5760 5759 5758 5758 5757 5755 5754 5752 5750 5748 5746 5743 5741 5738 5736 5733 5731 5728 5725 5722